#timestamp,LO_Frequency,Hit 
1498399215.4,286046946.9,N
1498399235.3,286046945.6,N
1498399255.1,286046946.8,N
1498399256.0,286046946.8,N
1498399275.8,286046944.5,N
1498399295.7,286046940.6,N
1498399315.5,286046941.7,N
1498399335.3,286046941.1,N
1498399355.1,286046942.0,N
1498399375.9,286046938.1,N
1498399395.7,286046937.0,N
1498399415.5,286046936.1,N
1498399435.4,286046936.7,N
1498399455.2,286046934.4,N
1498399475.0,286046936.3,N
1498399475.9,286046936.3,N
1498399495.8,286046937.0,N
1498399515.6,286046938.6,N
1498399535.4,286046940.2,N
1498399555.3,286046940.2,N
1498399575.1,286046942.0,N
1498399576.0,286046942.0,N
1498399595.8,286046941.9,N
1498399615.7,286046941.0,N
1498399635.5,286046941.1,N
1498399655.3,286046943.4,N
1498399675.1,286046942.7,N
1498399695.9,286046941.8,N
1498399715.7,286046941.6,N
1498399735.5,286046937.7,N
1498399755.4,286046941.6,N
1498399775.2,286046938.9,N
1498399795.0,286046939.4,N
1498399795.9,286046939.4,N
1498399815.8,286046941.7,N
1498399835.6,286046943.6,N
1498399855.4,286046942.4,N
1498399875.3,286046942.7,N
1498399895.1,286046943.1,N
1498399896.0,286046943.1,N
1498399915.8,286046943.1,N
1498399935.7,286046940.5,N
1498399955.5,286046943.4,N
1498399975.3,286046943.4,N
1498399995.2,286046941.3,N
1498400015.9,286046940.8,N
1498400035.7,286046940.9,N
1498400055.5,286046942.0,N
1498400075.4,286046939.0,N
1498400095.2,286046942.0,N
1498400115.0,286046938.9,N
1498400115.9,286046938.9,N
1498400135.8,286046941.5,N
1498400155.6,286046940.5,N
1498400175.4,286046939.1,N
1498400195.3,286046937.6,N
1498400215.1,286046938.6,N
1498400216.0,286046938.6,N
1498400235.8,286046937.0,N
1498400255.7,286046935.2,N
1498400275.5,286046933.7,N
1498400295.3,286046931.0,N
1498400315.2,286046933.6,N
1498400335.9,286046933.7,N
1498400355.7,286046932.9,N
1498400375.6,286046929.5,N
1498400395.4,286046932.4,N
1498400415.2,286046929.7,N
1498400435.0,286046930.1,N
1498400435.9,286046930.1,N
1498400455.8,286046928.3,N
1498400475.6,286046928.4,N
1498400495.4,286046926.3,N
1498400515.3,286046928.0,N
1498400535.1,286046927.7,N
1498400536.0,286046927.7,N
1498400555.8,286046931.8,N
1498400575.7,286046931.6,N
1498400595.5,286046935.5,N
1498400615.3,286046933.4,N
1498400635.2,286046933.1,N
1498400655.9,286046935.0,N
1498400675.7,286046937.1,N
1498400695.5,286046935.6,N
1498400715.4,286046934.8,N
1498400735.2,286046934.8,N
1498400755.0,286046936.9,N
1498400755.9,286046936.9,N
1498400775.8,286046938.8,N
1498400795.6,286046938.6,N
1498400815.4,286046936.7,N
1498400835.3,286046938.2,N
1498400855.1,286046936.5,N
1498400856.0,286046936.5,N
1498400875.8,286046936.0,N
1498400895.7,286046935.7,N
1498400915.5,286046938.1,N
1498400935.3,286046939.8,N
1498400955.2,286046937.4,N
1498400975.9,286046937.9,N
1498400995.7,286046940.3,N
1498401015.6,286046935.8,N
1498401035.4,286046937.6,N
1498401055.2,286046938.3,N
1498401075.0,286046938.4,N
1498401075.9,286046938.4,N
1498401095.8,286046936.5,N
1498401115.6,286046937.3,N
1498401135.4,286046941.8,N
1498401155.3,286046943.1,N
1498401175.1,286046945.0,N
1498401195.8,286046946.1,N
1498401215.7,286046945.8,N
1498401235.5,286046945.9,N
1498401255.3,286046945.3,N
1498401275.2,286046945.8,N
1498401295.9,286046946.0,N
1498401315.7,286046946.1,N
1498401335.6,286046945.8,N
1498401355.4,286046945.8,N
1498401375.2,286046945.3,N
1498401395.0,286046949.5,N
1498401395.9,286046949.5,N
1498401415.8,286046948.9,N
1498401435.6,286046951.0,N
1498401455.4,286046953.1,N
1498401475.3,286046950.2,N
1498401495.1,286046953.2,N
1498401515.8,286046952.5,N
1498401535.7,286046954.8,N
1498401555.5,286046952.7,N
1498401575.3,286046950.3,N
1498401595.2,286046950.5,N
1498401615.9,286046950.7,N
1498401635.7,286046949.1,N
1498401655.6,286046947.0,N
1498401675.4,286046951.2,N
1498401695.2,286046951.2,N
1498401715.0,286046951.2,N
1498401715.9,286046951.2,N
1498401735.8,286046952.1,N
1498401755.6,286046953.7,N
1498401775.4,286046953.8,N
1498401795.3,286046953.3,N
1498401815.1,286046954.1,N
1498401835.8,286046952.6,N
1498401855.7,286046950.2,N
1498401875.5,286046950.5,N
1498401895.3,286046951.5,N
1498401915.2,286046951.6,N
1498401935.9,286046952.0,N
1498401955.7,286046950.1,N
1498401975.6,286046951.6,N
1498401995.4,286046950.5,N
1498402015.2,286046950.5,N
1498402035.0,286046952.9,N
1498402035.9,286046952.9,N
1498402055.8,286046951.8,N
1498402075.6,286046951.7,N
1498402095.4,286046953.8,N
1498402115.3,286046954.8,N
1498402135.1,286046954.4,N
1498402155.8,286046954.4,N
1498402175.7,286046954.4,N
1498402195.5,286046953.7,N
1498402215.3,286046956.4,N
1498402235.2,286046956.2,N
1498402255.9,286046953.5,N
1498402275.7,286046955.7,N
1498402295.6,286046955.5,N
1498402315.4,286046957.2,N
1498402335.2,286046956.6,N
1498402355.0,286046955.0,N
1498402355.9,286046955.0,N
1498402375.8,286046954.2,N
1498402395.6,286046955.4,N
1498402415.4,286046957.1,N
1498402435.3,286046956.0,N
1498402455.1,286046953.7,N
1498402475.8,286046955.3,N
1498402495.7,286046957.0,N
1498402515.5,286046956.1,N
1498402535.4,286046953.4,N
1498402555.2,286046959.6,N
1498402575.0,286046959.2,N
1498402575.9,286046959.2,N
1498402595.8,286046957.3,N
1498402615.6,286046953.7,N
1498402635.4,286046954.7,N
1498402655.2,286046953.3,N
1498402675.1,286046958.0,N
1498402676.0,286046958.0,N
1498402695.8,286046957.2,N
1498402715.6,286046954.9,N
1498402735.5,286046956.0,N
1498402755.3,286046959.6,N
1498402775.1,286046959.5,N
1498402795.9,286046960.9,N
